• Em Portugal
  • Lista de países
  • Para 7 dias
  • Temperatura da água
  • Mapas de satélite
  • Mapa do tempo
  • Widgets de tempo
  • user-avatar
    Iniciar Sessão

    Previsão horária em São Paulo

    Hoje, 25 Fevereiro, Domingo

    Tempo Temperatura Precipitação Vento Pressão Humidade
    00:00 +19°C° 0 mm 2 m/s 699 mmHg 87%
    01:00 +19°C° 0 mm 2 m/s 699 mmHg 87%
    02:00 +19°C° 0 mm 2 m/s 699 mmHg 88%
    03:00 +19°C° 0 mm 1 m/s 699 mmHg 88%
    04:00 +19°C° 0 mm 1 m/s 699 mmHg 89%
    05:00 +19°C° 0 mm 1 m/s 699 mmHg 89%
    06:00 +19°C° 0 mm 1 m/s 699 mmHg 90%
    07:00 +21°C° 0 mm 1 m/s 699 mmHg 83%
    08:00 +21°C° 0 mm 2 m/s 700 mmHg 76%
    09:00 +24°C° 0 mm 2 m/s 700 mmHg 69%
    10:00 +25°C° 0,1 mm 2 m/s 700 mmHg 67%
    11:00 +26°C° 0,1 mm 2 m/s 700 mmHg 65%
    12:00 +27°C° 0,1 mm 2 m/s 701 mmHg 63%
    13:00 +27°C° 0,1 mm 3 m/s 700 mmHg 63%
    14:00 +27°C° 0,1 mm 3 m/s 700 mmHg 63%
    15:00 +27°C° 0,1 mm 3 m/s 699 mmHg 64%
    16:00 +26°C° 0 mm 3 m/s 699 mmHg 67%
    17:00 +25°C° 0 mm 3 m/s 699 mmHg 71%
    18:00 +24°C° 0 mm 3 m/s 698 mmHg 74%
    19:00 +22°C° 0 mm 3 m/s 699 mmHg 78%
    20:00 +21°C° 0 mm 3 m/s 699 mmHg 82%
    21:00 +20°C° 0 mm 2 m/s 699 mmHg 86%
    22:00 +20°C° 0 mm 2 m/s 699 mmHg 87%
    23:00 +20°C° 0 mm 2 m/s 699 mmHg 88%

    Amanhã, 26 Fevereiro, Segunda-feira

    Tempo Temperatura Precipitação Vento Pressão Humidade
    00:00 +20°C° 0 mm 2 m/s 699 mmHg 89%
    01:00 +20°C° 0 mm 2 m/s 699 mmHg 89%
    02:00 +21°C° 0 mm 1 m/s 698 mmHg 89%
    03:00 +20°C° 0 mm 1 m/s 698 mmHg 90%
    04:00 +20°C° 0 mm 1 m/s 698 mmHg 90%
    05:00 +20°C° 0 mm 1 m/s 698 mmHg 90%
    06:00 +20°C° 0 mm 1 m/s 698 mmHg 91%
    07:00 +22°C° 0 mm 1 m/s 699 mmHg 83%
    08:00 +24°C° 0 mm 1 m/s 700 mmHg 76%
    09:00 +25°C° 0 mm 1 m/s 700 mmHg 69%
    10:00 +26°C° 0,2 mm 1 m/s 700 mmHg 67%
    11:00 +27°C° 0,2 mm 1 m/s 700 mmHg 65%
    12:00 +28°C° 0,2 mm 1 m/s 700 mmHg 63%
    13:00 +28°C° 0,8 mm 1 m/s 699 mmHg 66%
    14:00 +28°C° 0,8 mm 1 m/s 698 mmHg 68%
    15:00 +27°C° 0,8 mm 1 m/s 698 mmHg 70%
    16:00 +26°C° 1,3 mm 1 m/s 698 mmHg 74%
    17:00 +26°C° 1,3 mm 1 m/s 698 mmHg 78%
    18:00 +25°C° 1,3 mm 1 m/s 697 mmHg 82%
    19:00 +24°C° 0,9 mm 1 m/s 698 mmHg 84%
    20:00 +24°C° 0,9 mm 1 m/s 698 mmHg 85%
    21:00 +23°C° 0,9 mm 1 m/s 698 mmHg 86%
    22:00 +23°C° 0,4 mm 1 m/s 698 mmHg 86%
    23:00 +23°C° 0,4 mm 1 m/s 698 mmHg 87%

    Depois de amanhã, 27 Fevereiro, Terça-feira

    Tempo Temperatura Precipitação Vento Pressão Humidade
    00:00 +22°C° 0,4 mm 1 m/s 698 mmHg 87%
    01:00 +22°C° 0 mm 1 m/s 698 mmHg 87%
    02:00 +22°C° 0 mm 1 m/s 697 mmHg 87%
    03:00 +22°C° 0 mm 1 m/s 697 mmHg 87%
    04:00 +22°C° 0 mm 1 m/s 697 mmHg 87%
    05:00 +22°C° 0 mm 1 m/s 697 mmHg 87%
    06:00 +22°C° 0 mm 1 m/s 697 mmHg 87%
    07:00 +23°C° 0 mm 1 m/s 698 mmHg 84%
    08:00 +24°C° 0 mm 2 m/s 698 mmHg 81%
    09:00 +25°C° 0 mm 2 m/s 699 mmHg 78%
    10:00 +26°C° 0,4 mm 2 m/s 699 mmHg 74%
    11:00 +27°C° 0,4 mm 2 m/s 699 mmHg 70%
    12:00 +28°C° 0,4 mm 3 m/s 699 mmHg 66%
    13:00 +28°C° 0,8 mm 2 m/s 698 mmHg 67%
    14:00 +28°C° 0,8 mm 2 m/s 698 mmHg 68%
    15:00 +28°C° 0,8 mm 1 m/s 697 mmHg 69%
    16:00 +27°C° 0,6 mm 1 m/s 697 mmHg 72%
    17:00 +26°C° 0,6 mm 1 m/s 697 mmHg 75%
    18:00 +24°C° 0,6 mm 0 m/s 696 mmHg 78%
    19:00 +25°C° 0,5 mm 1 m/s 697 mmHg 80%
    20:00 +24°C° 0,5 mm 1 m/s 697 mmHg 83%
    21:00 +24°C° 0,5 mm 1 m/s 698 mmHg 85%
    22:00 +23°C° 0,6 mm 1 m/s 697 mmHg 86%
    23:00 +23°C° 0,6 mm 1 m/s 697 mmHg 86%

    28 Fevereiro, Quarta-feira

    Tempo Temperatura Precipitação Vento Pressão Humidade
    00:00 +23°C° 0,6 mm 1 m/s 697 mmHg 87%
    01:00 +23°C° 0 mm 1 m/s 697 mmHg 87%
    02:00 +22°C° 0 mm 1 m/s 696 mmHg 87%
    03:00 +22°C° 0 mm 1 m/s 696 mmHg 87%
    04:00 +22°C° 0 mm 1 m/s 696 mmHg 87%
    05:00 +22°C° 0 mm 1 m/s 696 mmHg 86%
    06:00 +22°C° 0 mm 1 m/s 697 mmHg 86%
    07:00 +23°C° 0 mm 1 m/s 697 mmHg 83%
    08:00 +24°C° 0 mm 1 m/s 698 mmHg 80%
    09:00 +25°C° 0 mm 1 m/s 698 mmHg 77%
    10:00 +27°C° 0,1 mm 2 m/s 698 mmHg 70%
    11:00 +28°C° 0,1 mm 2 m/s 698 mmHg 64%
    12:00 +29°C° 0,1 mm 2 m/s 699 mmHg 57%
    13:00 +30°C° 0,4 mm 2 m/s 698 mmHg 58%
    14:00 +30°C° 0,4 mm 2 m/s 697 mmHg 58%
    15:00 +30°C° 0,4 mm 1 m/s 697 mmHg 59%
    16:00 +29°C° 0,5 mm 1 m/s 697 mmHg 65%
    17:00 +28°C° 0,5 mm 1 m/s 697 mmHg 71%
    18:00 +26°C° 0,5 mm 1 m/s 696 mmHg 78%
    19:00 +26°C° 0,4 mm 1 m/s 697 mmHg 80%
    20:00 +25°C° 0,4 mm 1 m/s 697 mmHg 83%
    21:00 +24°C° 0,4 mm 1 m/s 698 mmHg 86%
    22:00 +24°C° 0,8 mm 1 m/s 698 mmHg 86%
    23:00 +23°C° 0,8 mm 1 m/s 698 mmHg 86%

    1 Março, Quinta-feira

    Tempo Temperatura Precipitação Vento Pressão Humidade
    00:00 +23°C° 0,8 mm 1 m/s 698 mmHg 87%
    01:00 +23°C° 0,6 mm 1 m/s 697 mmHg 87%
    02:00 +23°C° 0,6 mm 1 m/s 697 mmHg 87%
    03:00 +23°C° 0,6 mm 1 m/s 697 mmHg 87%
    04:00 +23°C° 0,1 mm 1 m/s 697 mmHg 87%
    05:00 +23°C° 0,1 mm 1 m/s 697 mmHg 87%
    06:00 +21°C° 0,1 mm 0 m/s 697 mmHg 87%
    07:00 +24°C° 0 mm 1 m/s 698 mmHg 83%
    08:00 +25°C° 0 mm 1 m/s 699 mmHg 79%
    09:00 +26°C° 0 mm 1 m/s 699 mmHg 76%
    10:00 +27°C° 0,3 mm 1 m/s 699 mmHg 71%
    11:00 +29°C° 0,3 mm 1 m/s 699 mmHg 66%
    12:00 +30°C° 0,3 mm 1 m/s 699 mmHg 61%
    13:00 +30°C° 0,5 mm 1 m/s 699 mmHg 62%
    14:00 +30°C° 0,5 mm 1 m/s 698 mmHg 63%
    15:00 +29°C° 0,5 mm 1 m/s 698 mmHg 64%
    16:00 +28°C° 1,2 mm 1 m/s 698 mmHg 70%
    17:00 +27°C° 1,2 mm 2 m/s 698 mmHg 75%
    18:00 +26°C° 1,2 mm 2 m/s 698 mmHg 81%
    19:00 +25°C° 0,9 mm 2 m/s 698 mmHg 83%
    20:00 +25°C° 0,9 mm 2 m/s 698 mmHg 85%
    21:00 +24°C° 0,9 mm 2 m/s 698 mmHg 87%
    22:00 +24°C° 0 mm 1 m/s 698 mmHg 88%
    23:00 +23°C° 0 mm 1 m/s 698 mmHg 88%

    2 Março, Sexta-feira

    Tempo Temperatura Precipitação Vento Pressão Humidade
    00:00 +23°C° 0 mm 1 m/s 698 mmHg 88%
    01:00 +23°C° 0 mm 1 m/s 698 mmHg 88%
    02:00 +23°C° 0 mm 1 m/s 698 mmHg 88%
    03:00 +23°C° 0 mm 1 m/s 697 mmHg 88%
    04:00 +20°C° 0 mm 0 m/s 697 mmHg 88%
    05:00 +20°C° 0 mm 0 m/s 697 mmHg 88%
    06:00 +20°C° 0 mm 0 m/s 698 mmHg 89%
    07:00 +22°C° 0 mm 0 m/s 698 mmHg 83%
    08:00 +24°C° 0 mm 0 m/s 699 mmHg 77%
    09:00 +27°C° 0 mm 1 m/s 699 mmHg 71%
    10:00 +28°C° 0,3 mm 1 m/s 699 mmHg 68%
    11:00 +29°C° 0,3 mm 1 m/s 699 mmHg 64%
    12:00 +31°C° 0,3 mm 1 m/s 699 mmHg 61%
    13:00 +30°C° 1,8 mm 2 m/s 698 mmHg 65%
    14:00 +30°C° 1,8 mm 2 m/s 698 mmHg 68%
    15:00 +29°C° 1,8 mm 2 m/s 697 mmHg 72%
    16:00 +28°C° 3,1 mm 2 m/s 697 mmHg 77%
    17:00 +26°C° 3,1 mm 2 m/s 697 mmHg 82%
    18:00 +25°C° 3,1 mm 2 m/s 696 mmHg 87%
    19:00 +25°C° 1,3 mm 1 m/s 697 mmHg 88%
    20:00 +24°C° 1,3 mm 1 m/s 697 mmHg 89%
    21:00 +24°C° 1,3 mm 1 m/s 697 mmHg 90%
    22:00 +24°C° 0,5 mm 1 m/s 697 mmHg 90%
    23:00 +24°C° 0,5 mm 1 m/s 697 mmHg 90%
    Mostrar mais